Regional Weather Roundup
Issued by NWS

Home | Current Version | Previous Version | Text Only | Print | Product List | Glossary On
Versions: 1 2 3 4 5 6 7 8 9 10 11 12 13 14 15 16 17 18 19 20 21 22 23 24 25 26 27 28 29 30 31 32 33 34 35 36 37 38 39 40 41 42 43 44 45 46 47 48 49 50
000
ASUS45 KBOI 252210
RWRID

IDAHO REGIONAL WEATHER ROUNDUP
NATIONAL WEATHER SERVICE BOISE ID
400 PM MDT MON MAY 25 2015

NOTE: "FAIR" INDICATES FEW OR NO CLOUDS BELOW 12000 FEET
WITH NO SIGNIFICANT WEATHER AND/OR OBSTRUCTIONS TO VISIBILITY

IDZ012-014-252300-
SOUTHWEST IDAHO


CITY           SKY/WX    TMP DP  RH WIND       PRES   REMARKS
BOISE          LGT RAIN  72  41  33 VRB3      29.84R
CALDWELL       PTSUNNY   77  45  31 N3        29.83F
MOUNTAIN HOME  CLOUDY    77  45  31 NW16G23   29.86R
$$

IDZ016-017-252300-
SOUTHCENTRAL IDAHO


CITY           SKY/WX    TMP DP  RH WIND       PRES   REMARKS
BURLEY         PTSUNNY   70  49  47 SW20      29.89S
JEROME         MOSUNNY   72  42  34 SW10      29.89F
TWIN FALLS     PTSUNNY   69  46  43 S12       29.88F
$$

IDZ019>023-252300-
SOUTHEAST IDAHO


CITY           SKY/WX    TMP DP  RH WIND       PRES   REMARKS
IDAHO FALLS    TSTM      62  48  60 S7        29.91F
POCATELLO      MOSUNNY   70  43  37 W10       29.91F
REXBURG        MOSUNNY   66  42  41 S8        29.90F
$$

IDZ006-010-011-018-031-032-252300-
CENTRAL IDAHO MOUNTAINS


CITY           SKY/WX    TMP DP  RH WIND       PRES   REMARKS
MCCALL         CLOUDY    60  37  42 W6        29.91S
HAILEY         PTSUNNY   64  45  48 S9        29.93F
STANLEY          N/A     63  30  28 N10       29.95F
SALMON         PTSUNNY   70  41  35 S5        29.84F
CHALLIS        PTSUNNY   72  35  25 N8        29.86F
$$

IDZ002-004-006-007-026-252300-
NORTHERN IDAHO


CITY           SKY/WX    TMP DP  RH WIND       PRES   REMARKS
LEWISTON       CLOUDY    72  49  44 MISG      29.85F
LOWELL           N/A     66  55  67 CALM      29.86R
COEUR D`ALENE  CLOUDY    66  52  59 SW7       29.88F
MULLAN PASS    FOG       45  44  97 VRB3      29.99S VSB 1/2
$$



USA.gov is the U.S. government's official web portal to all federal, state and local government web resources and services.